START_TIME,STEP,MOV.,AL01,t_acc.,AL02,t_acc.,E37,t_acc.,H21,t_acc.
1979-07-05 18:00:35.020 ,1,1,4.,24.0,0.,24.0,3.,24.0,0.,24.0
1979-07-05 18:00:59.020 ,2,1,0.,24.0,0.,24.0,10.,24.0,0.,24.0
1979-07-05 18:01:23.020 ,6,1,0.,24.0,0.,24.0,5.,24.0,0.,24.0
1979-07-05 18:01:47.020 ,5,1,19.,24.0,0.,24.0,2.,24.0,0.,24.0
1979-07-05 18:02:11.020 ,1,1,0.,24.0,0.,24.0,7.,24.0,0.,24.0
1979-07-05 18:02:35.020 ,2,1,1.,24.0,0.,24.0,3.,24.0,0.,24.0
1979-07-05 18:02:59.020 ,6,1,1.,24.0,0.,24.0,4.,24.0,0.,24.0
1979-07-05 18:03:23.020 ,5,1,9.,24.0,0.,24.0,3.,24.0,0.,24.0
1979-07-05 18:03:47.020 ,1,1,0.,24.0,1.,24.0,3.,24.0,0.,24.0
1979-07-05 18:04:11.020 ,2,1,1.,24.0,0.,24.0,7.,24.0,0.,24.0
1979-07-05 18:04:35.020 ,6,1,0.,24.0,0.,24.0,2.,24.0,0.,24.0
1979-07-05 18:04:59.020 ,5,1,20.,24.0,0.,24.0,3.,24.0,0.,24.0
1979-07-05 18:05:23.020 ,1,1,0.,24.0,1.,24.0,1.,24.0,0.,24.0
1979-07-05 18:05:47.020 ,0,0,0.,24.0,0.,24.0,4.,24.0,0.,24.0
1979-07-05 18:06:11.020 ,0,0,0.,24.0,0.,24.0,7.,24.0,0.,24.0
1979-07-05 18:06:35.020 ,5,1,12.,24.0,0.,24.0,4.,24.0,0.,24.0
1979-07-05 18:06:59.020 ,5,0,0.,24.0,0.,24.0,5.,24.0,0.,24.0
1979-07-05 18:07:23.020 ,4,1,0.,24.0,0.,24.0,4.,24.0,0.,24.0
1979-07-05 18:07:47.020 ,4,0,0.,24.0,0.,24.0,8.,24.0,0.,24.0
1979-07-05 18:08:11.020 ,3,1,0.,24.0,0.,24.0,7.,24.0,0.,24.0
1979-07-05 18:08:35.020 ,3,0,0.,24.0,1.,24.0,7.,24.0,0.,24.0
1979-07-05 18:08:59.020 ,2,1,0.,24.0,0.,24.0,2.,24.0,0.,24.0
1979-07-05 18:09:23.020 ,2,0,0.,24.0,0.,24.0,5.,24.0,0.,24.0
1979-07-05 18:09:47.020 ,1,1,1.,24.0,0.,24.0,4.,24.0,0.,24.0
1979-07-05 18:10:11.020 ,1,0,0.,24.0,0.,24.0,8.,24.0,0.,24.0
1979-07-05 18:10:35.020 ,0,1,1.,24.0,0.,24.0,6.,24.0,0.,24.0
1979-07-05 18:10:59.020 ,0,0,1.,24.0,0.,24.0,8.,24.0,0.,24.0
1979-07-05 18:11:23.020 ,0,1,1.,24.0,0.,24.0,7.,24.0,0.,24.0
1979-07-05 18:11:47.020 ,0,0,1.,24.0,0.,24.0,8.,24.0,0.,24.0
1979-07-05 18:12:11.020 ,1,1,0.,24.0,0.,24.0,9.,24.0,0.,24.0
1979-07-05 18:12:35.020 ,1,0,0.,24.0,0.,24.0,6.,24.0,0.,24.0
1979-07-05 18:12:59.020 ,2,1,0.,24.0,0.,24.0,10.,24.0,0.,24.0
1979-07-05 18:13:23.020 ,2,0,0.,24.0,0.,24.0,10.,24.0,0.,24.0
1979-07-05 18:13:47.020 ,3,1,0.,24.0,0.,24.0,9.,24.0,0.,24.0
1979-07-05 18:14:11.020 ,3,0,0.,24.0,0.,24.0,6.,24.0,0.,24.0
1979-07-05 18:14:35.020 ,4,1,1.,24.0,0.,24.0,7.,24.0,0.,24.0
1979-07-05 18:14:59.020 ,4,0,0.,24.0,0.,24.0,6.,24.0,0.,24.0
1979-07-05 18:15:23.020 ,5,1,0.,24.0,0.,24.0,7.,24.0,0.,24.0
1979-07-05 18:15:47.020 ,5,0,1.,24.0,0.,24.0,9.,24.0,0.,24.0
1979-07-05 18:16:11.020 ,6,1,2.,24.0,0.,24.0,3.,24.0,0.,24.0
1979-07-05 18:16:35.020 ,6,0,0.,24.0,0.,24.0,12.,24.0,0.,24.0
1979-07-05 18:16:59.020 ,7,1,12.,24.0,0.,24.0,9.,24.0,0.,24.0
1979-07-05 18:17:23.020 ,7,0,27.,24.0,0.,24.0,8.,24.0,0.,24.0
1979-07-05 18:17:47.020 ,7,1,24.,24.0,0.,24.0,6.,24.0,0.,24.0
1979-07-05 18:18:11.020 ,7,0,24.,24.0,0.,24.0,7.,24.0,0.,24.0
1979-07-05 18:18:35.020 ,6,1,21.,24.0,0.,24.0,10.,24.0,0.,24.0
1979-07-05 18:18:59.020 ,6,0,0.,24.0,0.,24.0,8.,24.0,0.,24.0
1979-07-05 18:19:23.020 ,5,1,0.,24.0,0.,24.0,8.,24.0,0.,24.0
1979-07-05 18:19:47.020 ,5,0,0.,24.0,0.,24.0,9.,24.0,0.,24.0
1979-07-05 18:20:11.020 ,4,1,0.,24.0,0.,24.0,8.,24.0,0.,24.0
1979-07-05 18:20:35.020 ,4,0,0.,24.0,0.,24.0,4.,24.0,0.,24.0
1979-07-05 18:20:59.020 ,3,1,0.,24.0,0.,24.0,8.,24.0,0.,24.0
1979-07-05 18:21:23.020 ,3,0,0.,24.0,1.,24.0,6.,24.0,0.,24.0
1979-07-05 18:21:47.020 ,2,1,3.,24.0,0.,24.0,8.,24.0,0.,24.0
1979-07-05 18:22:11.020 ,2,0,0.,24.0,0.,24.0,3.,24.0,0.,24.0
1979-07-05 18:22:35.020 ,1,1,1.,24.0,0.,24.0,9.,24.0,0.,24.0
1979-07-05 18:22:59.020 ,1,0,0.,24.0,0.,24.0,6.,24.0,0.,24.0
1979-07-05 18:23:23.020 ,0,1,0.,24.0,0.,24.0,10.,24.0,0.,24.0
1979-07-05 18:23:47.020 ,0,0,1.,24.0,0.,24.0,9.,24.0,0.,24.0
1979-07-05 18:24:11.020 ,0,1,1.,24.0,0.,24.0,10.,24.0,0.,24.0
1979-07-05 18:24:35.020 ,0,0,0.,24.0,0.,24.0,9.,24.0,0.,24.0
1979-07-05 18:24:59.020 ,1,1,0.,24.0,0.,24.0,7.,24.0,0.,24.0
1979-07-05 18:25:23.020 ,1,0,0.,24.0,0.,24.0,7.,24.0,0.,24.0
1979-07-05 18:25:47.020 ,2,1,0.,24.0,0.,24.0,5.,24.0,0.,24.0
1979-07-05 18:26:11.020 ,2,0,0.,24.0,0.,24.0,10.,24.0,0.,24.0
1979-07-05 18:26:35.020 ,3,1,0.,24.0,0.,24.0,8.,24.0,0.,24.0
1979-07-05 18:26:59.020 ,3,0,0.,24.0,0.,24.0,6.,24.0,0.,24.0
1979-07-05 18:27:23.020 ,4,1,0.,24.0,0.,24.0,10.,24.0,0.,24.0
1979-07-05 18:27:47.020 ,4,0,1.,24.0,0.,24.0,7.,24.0,0.,24.0
1979-07-05 18:28:11.020 ,5,1,2.,24.0,1.,24.0,12.,24.0,0.,24.0
1979-07-05 18:28:35.020 ,5,0,0.,24.0,0.,24.0,14.,24.0,0.,24.0
1979-07-05 18:28:59.020 ,6,1,2.,24.0,1.,24.0,15.,24.0,0.,24.0
1979-07-05 18:29:23.020 ,6,0,0.,24.0,1.,24.0,14.,24.0,0.,24.0
1979-07-05 18:29:47.020 ,7,1,7.,24.0,0.,24.0,10.,24.0,0.,24.0
1979-07-05 18:30:11.020 ,7,0,26.,24.0,0.,24.0,7.,24.0,0.,24.0
1979-07-05 18:30:35.020 ,7,1,32.,24.0,0.,24.0,11.,24.0,0.,24.0
1979-07-05 18:30:59.020 ,7,0,23.,24.0,0.,24.0,13.,24.0,0.,24.0
1979-07-05 18:31:23.020 ,6,1,24.,24.0,0.,24.0,11.,24.0,0.,24.0
1979-07-05 18:31:47.020 ,6,0,0.,24.0,0.,24.0,9.,24.0,0.,24.0
1979-07-05 18:32:11.020 ,5,1,1.,24.0,0.,24.0,13.,24.0,0.,24.0
1979-07-05 18:32:35.020 ,5,0,1.,24.0,0.,24.0,10.,24.0,0.,24.0
1979-07-05 18:32:59.020 ,4,1,0.,24.0,0.,24.0,23.,24.0,0.,24.0
1979-07-05 18:33:23.020 ,4,0,0.,24.0,0.,24.0,17.,24.0,0.,24.0
1979-07-05 18:33:47.020 ,3,1,0.,24.0,1.,24.0,11.,24.0,0.,24.0
1979-07-05 18:34:11.020 ,3,0,0.,24.0,0.,24.0,12.,24.0,0.,24.0
1979-07-05 18:34:35.020 ,2,1,0.,24.0,0.,24.0,7.,24.0,0.,24.0
1979-07-05 18:34:59.020 ,2,0,3.,24.0,0.,24.0,13.,24.0,0.,24.0
1979-07-05 18:35:23.020 ,1,1,0.,24.0,0.,24.0,7.,24.0,0.,24.0
1979-07-05 18:35:47.020 ,1,0,1.,24.0,0.,24.0,13.,24.0,0.,24.0
1979-07-05 18:36:11.020 ,0,1,3.,24.0,0.,24.0,15.,24.0,0.,24.0
1979-07-05 18:36:35.020 ,0,0,2.,24.0,0.,24.0,18.,24.0,0.,24.0
1979-07-05 18:36:59.020 ,0,1,0.,24.0,0.,24.0,16.,24.0,0.,24.0
1979-07-05 18:37:23.020 ,0,0,1.,24.0,0.,24.0,18.,24.0,0.,24.0
1979-07-05 18:37:47.020 ,1,1,0.,24.0,0.,24.0,20.,24.0,0.,24.0
1979-07-05 18:38:11.020 ,1,0,1.,24.0,0.,24.0,14.,24.0,0.,24.0
1979-07-05 18:38:35.020 ,2,1,0.,24.0,0.,24.0,16.,24.0,0.,24.0
1979-07-05 18:38:59.020 ,2,0,0.,24.0,0.,24.0,27.,24.0,0.,24.0
1979-07-05 18:39:23.020 ,3,1,2.,24.0,0.,24.0,15.,24.0,0.,24.0
1979-07-05 18:39:47.020 ,3,0,2.,24.0,0.,24.0,11.,24.0,0.,24.0
1979-07-05 18:40:11.020 ,4,1,3.,24.0,0.,24.0,16.,24.0,0.,24.0
1979-07-05 18:40:35.020 ,4,0,3.,24.0,1.,24.0,22.,24.0,0.,24.0
1979-07-05 18:40:59.020 ,5,1,4.,24.0,2.,24.0,25.,24.0,0.,24.0
1979-07-05 18:41:23.020 ,5,0,4.,24.0,0.,24.0,24.,24.0,0.,24.0
1979-07-05 18:41:47.020 ,6,1,5.,24.0,0.,24.0,33.,24.0,0.,24.0
1979-07-05 18:42:11.020 ,6,0,1.,24.0,0.,24.0,43.,24.0,0.,24.0
1979-07-05 18:42:35.020 ,7,0,10.,24.0,0.,24.0,49.,24.0,0.,24.0
1979-07-05 18:42:59.020 ,7,0,28.,24.0,0.,24.0,47.,24.0,0.,24.0
1979-07-05 18:43:23.020 ,5,1,13.,24.0,0.,24.0,38.,24.0,0.,24.0
1979-07-05 18:43:47.020 ,1,1,0.,24.0,0.,24.0,40.,24.0,0.,24.0
1979-07-05 18:44:11.020 ,2,1,2.,24.0,0.,24.0,46.,24.0,0.,24.0
1979-07-05 18:44:35.020 ,6,1,2.,24.0,2.,24.0,46.,24.0,0.,24.0
1979-07-05 18:44:59.020 ,5,1,11.,24.0,0.,24.0,59.,24.0,0.,24.0
1979-07-05 18:45:23.020 ,1,1,2.,24.0,1.,24.0,57.,24.0,0.,24.0
1979-07-05 18:45:47.020 ,2,1,3.,24.0,0.,24.0,45.,24.0,0.,24.0
1979-07-05 18:46:11.020 ,6,1,5.,24.0,1.,24.0,70.,24.0,0.,24.0
1979-07-05 18:46:35.020 ,5,1,16.,24.0,0.,24.0,80.,24.0,0.,24.0
1979-07-05 18:46:59.020 ,1,1,5.,24.0,0.,24.0,74.,24.0,0.,24.0
1979-07-05 18:47:23.020 ,2,1,1.,24.0,0.,24.0,78.,24.0,0.,24.0
1979-07-05 18:47:47.020 ,6,1,4.,24.0,0.,24.0,88.,24.0,0.,24.0
1979-07-05 18:48:11.020 ,5,1,14.,24.0,1.,24.0,92.,24.0,0.,24.0
1979-07-05 18:48:35.020 ,1,1,1.,24.0,1.,24.0,63.,24.0,0.,24.0
1979-07-05 18:48:59.020 ,2,1,1.,24.0,0.,24.0,66.,24.0,0.,24.0
1979-07-05 18:49:23.020 ,6,1,1.,24.0,0.,24.0,80.,24.0,0.,24.0
1979-07-05 18:49:47.020 ,5,1,29.,24.0,0.,24.0,96.,24.0,0.,24.0
1979-07-05 18:50:11.020 ,1,1,6.,24.0,1.,24.0,76.,24.0,0.,24.0
1979-07-05 18:50:35.020 ,2,1,0.,24.0,0.,24.0,84.,24.0,0.,24.0
1979-07-05 18:50:59.020 ,6,1,4.,24.0,0.,24.0,70.,24.0,0.,24.0
1979-07-05 18:51:23.020 ,5,1,13.,24.0,0.,24.0,106.,24.0,0.,24.0
1979-07-05 18:51:47.020 ,1,1,2.,24.0,0.,24.0,80.,24.0,0.,24.0
1979-07-05 18:52:11.020 ,2,1,1.,24.0,1.,24.0,92.,24.0,0.,24.0
1979-07-05 18:52:35.020 ,6,1,2.,24.0,1.,24.0,88.,24.0,0.,24.0
1979-07-05 18:52:59.020 ,5,1,17.,24.0,0.,24.0,108.,24.0,0.,24.0
1979-07-05 18:53:23.020 ,1,1,5.,24.0,0.,24.0,74.,24.0,0.,24.0
1979-07-05 18:53:47.020 ,0,0,1.,24.0,0.,24.0,68.,24.0,0.,24.0
1979-07-05 18:54:11.020 ,0,0,2.,24.0,0.,24.0,100.,24.0,0.,24.0
1979-07-05 18:54:35.020 ,5,1,15.,24.0,0.,24.0,106.,24.0,0.,24.0
1979-07-05 18:54:59.020 ,5,0,5.,24.0,1.,24.0,104.,24.0,0.,24.0
1979-07-05 18:55:23.020 ,4,1,2.,24.0,0.,24.0,106.,24.0,0.,24.0
1979-07-05 18:55:47.020 ,4,0,6.,24.0,1.,24.0,108.,24.0,0.,24.0
1979-07-05 18:56:11.020 ,3,1,3.,24.0,1.,24.0,82.,24.0,0.,24.0
1979-07-05 18:56:35.020 ,3,0,3.,24.0,0.,24.0,80.,24.0,0.,24.0
1979-07-05 18:56:59.020 ,2,1,0.,24.0,1.,24.0,63.,24.0,0.,24.0
1979-07-05 18:57:23.020 ,2,0,5.,24.0,0.,24.0,78.,24.0,0.,24.0
1979-07-05 18:57:47.020 ,1,1,3.,24.0,0.,24.0,72.,24.0,0.,24.0
1979-07-05 18:58:11.020 ,1,0,1.,24.0,0.,24.0,74.,24.0,0.,24.0
1979-07-05 18:58:35.020 ,0,1,0.,24.0,0.,24.0,104.,24.0,0.,24.0
1979-07-05 18:58:59.020 ,0,0,2.,24.0,1.,24.0,98.,24.0,0.,24.0
1979-07-05 18:59:23.020 ,0,1,5.,24.0,1.,24.0,78.,24.0,0.,24.0
1979-07-05 18:59:47.020 ,0,0,2.,24.0,1.,24.0,80.,24.0,0.,24.0
1979-07-05 19:00:11.020 ,1,1,2.,24.0,0.,24.0,76.,24.0,0.,24.0
1979-07-05 19:00:35.020 ,1,0,6.,24.0,0.,24.0,80.,24.0,0.,24.0
1979-07-05 19:00:59.020 ,2,1,3.,24.0,0.,24.0,68.,24.0,0.,24.0
1979-07-05 19:01:23.020 ,2,0,3.,24.0,1.,24.0,61.,24.0,0.,24.0
1979-07-05 19:01:47.020 ,3,1,1.,24.0,0.,24.0,92.,24.0,0.,24.0
1979-07-05 19:02:11.020 ,3,0,6.,24.0,0.,24.0,74.,24.0,0.,24.0
1979-07-05 19:02:35.020 ,4,1,4.,24.0,0.,24.0,88.,24.0,0.,24.0
1979-07-05 19:02:59.020 ,4,0,6.,24.0,0.,24.0,78.,24.0,0.,24.0
1979-07-05 19:03:23.020 ,5,1,5.,24.0,2.,24.0,66.,24.0,0.,24.0
1979-07-05 19:03:47.020 ,5,0,1.,24.0,1.,24.0,92.,24.0,0.,24.0
1979-07-05 19:04:11.020 ,6,1,5.,24.0,0.,24.0,106.,24.0,0.,24.0
1979-07-05 19:04:35.020 ,6,0,0.,24.0,0.,24.0,90.,24.0,0.,24.0
1979-07-05 19:04:59.020 ,7,1,9.,24.0,0.,24.0,108.,24.0,0.,24.0
1979-07-05 19:05:23.020 ,7,0,26.,24.0,0.,24.0,100.,24.0,0.,24.0
1979-07-05 19:05:47.020 ,7,1,32.,24.0,0.,24.0,102.,24.0,0.,24.0
1979-07-05 19:06:11.020 ,7,0,25.,24.0,0.,24.0,88.,24.0,0.,24.0
1979-07-05 19:06:35.020 ,6,1,24.,24.0,0.,24.0,98.,24.0,0.,24.0
1979-07-05 19:06:59.020 ,6,0,3.,24.0,1.,24.0,104.,24.0,0.,24.0
1979-07-05 19:07:23.020 ,5,1,2.,24.0,0.,24.0,98.,24.0,0.,24.0
1979-07-05 19:07:47.020 ,5,0,5.,24.0,1.,24.0,106.,24.0,0.,24.0
1979-07-05 19:08:11.020 ,4,1,5.,24.0,0.,24.0,100.,24.0,0.,24.0
1979-07-05 19:08:35.020 ,4,0,12.,24.0,2.,24.0,100.,24.0,0.,24.0
1979-07-05 19:10:35.020 ,0,0,4.,24.0,0.,24.0,82.,24.0,0.,24.0
1979-07-05 19:10:59.020 ,0,0,1.,24.0,0.,24.0,96.,24.0,0.,24.0
1979-07-05 19:11:23.020 ,0,1,3.,24.0,0.,24.0,80.,24.0,0.,24.0
1979-07-05 19:11:47.020 ,0,0,1.,24.0,2.,24.0,116.,24.0,0.,24.0
1979-07-05 19:12:11.020 ,0,1,4.,24.0,1.,24.0,94.,24.0,0.,24.0
1979-07-05 19:12:35.020 ,0,0,3.,24.0,1.,24.0,104.,24.0,0.,24.0
1979-07-05 19:12:59.020 ,1,1,2.,24.0,0.,24.0,102.,24.0,0.,24.0
1979-07-05 19:13:23.020 ,1,0,3.,24.0,1.,24.0,108.,24.0,0.,24.0
1979-07-05 19:13:47.020 ,2,1,8.,24.0,0.,24.0,118.,24.0,0.,24.0
1979-07-05 19:14:11.020 ,2,0,3.,24.0,1.,24.0,86.,24.0,0.,24.0
1979-07-05 19:14:35.020 ,3,1,3.,24.0,1.,24.0,104.,24.0,0.,24.0
1979-07-05 19:14:59.020 ,3,0,5.,24.0,0.,24.0,94.,24.0,0.,24.0
1979-07-05 19:15:23.020 ,4,1,7.,24.0,0.,24.0,94.,24.0,0.,24.0
1979-07-05 19:15:47.020 ,4,0,8.,24.0,1.,24.0,120.,24.0,0.,24.0
1979-07-05 19:16:11.020 ,5,1,7.,24.0,0.,24.0,110.,24.0,0.,24.0
1979-07-05 19:16:35.020 ,5,0,3.,24.0,0.,24.0,118.,24.0,0.,24.0
1979-07-05 19:16:59.020 ,6,1,5.,24.0,1.,24.0,144.,24.0,0.,24.0
1979-07-05 19:17:23.020 ,6,0,2.,24.0,0.,24.0,164.,24.0,0.,24.0
1979-07-05 19:17:47.020 ,7,1,8.,24.0,0.,24.0,148.,24.0,0.,24.0
1979-07-05 19:18:11.020 ,7,0,29.,24.0,0.,24.0,156.,24.0,0.,24.0
1979-07-05 19:18:35.020 ,7,1,32.,24.0,0.,24.0,160.,24.0,0.,24.0
1979-07-05 19:18:59.020 ,7,0,28.,24.0,0.,24.0,140.,24.0,0.,24.0
1979-07-05 19:19:23.020 ,6,1,20.,24.0,0.,24.0,164.,24.0,0.,24.0
1979-07-05 19:19:47.020 ,6,0,0.,24.0,0.,24.0,172.,24.0,0.,24.0
1979-07-05 19:20:11.020 ,5,1,2.,24.0,0.,24.0,196.,24.0,0.,24.0
1979-07-05 19:20:35.020 ,5,0,6.,24.0,1.,24.0,172.,24.0,0.,24.0
1979-07-05 19:20:59.020 ,4,1,2.,24.0,0.,24.0,148.,24.0,0.,24.0
1979-07-05 19:21:23.020 ,4,0,8.,24.0,0.,24.0,148.,24.0,0.,24.0
1979-07-05 19:21:47.020 ,3,1,7.,24.0,0.,24.0,122.,24.0,0.,24.0
1979-07-05 19:22:11.020 ,3,0,6.,24.0,0.,24.0,108.,24.0,0.,24.0
1979-07-05 19:22:35.020 ,2,1,2.,24.0,1.,24.0,102.,24.0,0.,24.0
1979-07-05 19:22:59.020 ,2,0,2.,24.0,0.,24.0,110.,24.0,0.,24.0
1979-07-05 19:23:23.020 ,1,1,0.,24.0,0.,24.0,94.,24.0,0.,24.0
1979-07-05 19:23:47.020 ,1,0,4.,24.0,0.,24.0,116.,24.0,0.,24.0
1979-07-05 19:24:11.020 ,0,1,5.,24.0,0.,24.0,132.,24.0,0.,24.0
1979-07-05 19:24:35.020 ,0,0,2.,24.0,0.,24.0,132.,24.0,0.,24.0
1979-07-05 19:24:59.020 ,0,1,5.,24.0,1.,24.0,148.,24.0,0.,24.0
1979-07-05 19:25:23.020 ,0,0,4.,24.0,0.,24.0,156.,24.0,0.,24.0
1979-07-05 19:25:47.020 ,1,1,4.,24.0,1.,24.0,136.,24.0,0.,24.0
1979-07-05 19:26:11.020 ,1,0,2.,24.0,0.,24.0,140.,24.0,0.,24.0
1979-07-05 19:26:35.020 ,2,1,6.,24.0,1.,24.0,92.,24.0,0.,24.0
1979-07-05 19:26:59.020 ,2,0,0.,24.0,1.,24.0,106.,24.0,0.,24.0
1979-07-05 19:27:23.020 ,3,1,0.,24.0,0.,24.0,92.,24.0,0.,24.0
1979-07-05 19:27:47.020 ,3,0,11.,24.0,1.,24.0,106.,24.0,0.,24.0
1979-07-05 19:28:11.020 ,4,1,5.,24.0,0.,24.0,116.,24.0,0.,24.0
1979-07-05 19:28:35.020 ,4,0,3.,24.0,0.,24.0,128.,24.0,0.,24.0
1979-07-05 19:28:59.020 ,5,1,2.,24.0,0.,24.0,126.,24.0,0.,24.0
1979-07-05 19:29:23.020 ,5,0,2.,24.0,0.,24.0,128.,24.0,0.,24.0
1979-07-05 19:29:47.020 ,6,1,3.,24.0,0.,24.0,136.,24.0,0.,24.0
1979-07-05 19:30:11.020 ,6,0,2.,24.0,0.,24.0,156.,24.0,0.,24.0
1979-07-05 19:30:35.020 ,7,0,7.,24.0,0.,24.0,148.,24.0,0.,24.0
1979-07-05 19:30:59.020 ,7,0,34.,24.0,0.,24.0,156.,24.0,0.,24.0
1979-07-05 19:31:23.020 ,5,1,14.,24.0,1.,24.0,148.,24.0,0.,24.0
1979-07-05 19:31:47.020 ,1,1,4.,24.0,0.,24.0,112.,24.0,0.,24.0
1979-07-05 19:32:11.020 ,2,1,3.,24.0,0.,24.0,126.,24.0,0.,24.0
1979-07-05 19:32:35.020 ,6,1,1.,24.0,1.,24.0,136.,24.0,0.,24.0
1979-07-05 19:32:59.020 ,5,1,22.,24.0,0.,24.0,140.,24.0,0.,24.0
1979-07-05 19:33:23.020 ,1,1,4.,24.0,0.,24.0,118.,24.0,0.,24.0
1979-07-05 19:33:47.020 ,2,1,3.,24.0,0.,24.0,124.,24.0,0.,24.0
1979-07-05 19:34:11.020 ,6,1,3.,24.0,1.,24.0,136.,24.0,0.,24.0
1979-07-05 19:34:35.020 ,5,1,20.,24.0,0.,24.0,140.,24.0,0.,24.0
1979-07-05 19:34:59.020 ,1,1,3.,24.0,0.,24.0,128.,24.0,0.,24.0
1979-07-05 19:35:23.020 ,2,1,4.,24.0,1.,24.0,136.,24.0,0.,24.0
1979-07-05 19:35:47.020 ,6,1,2.,24.0,0.,24.0,140.,24.0,0.,24.0
1979-07-05 19:36:11.020 ,5,1,19.,24.0,0.,24.0,192.,24.0,0.,24.0
1979-07-05 19:36:35.020 ,1,1,0.,24.0,2.,24.0,132.,24.0,0.,24.0
1979-07-05 19:36:59.020 ,2,1,6.,24.0,0.,24.0,140.,24.0,0.,24.0
1979-07-05 19:37:23.020 ,6,1,2.,24.0,0.,24.0,128.,24.0,0.,24.0
1979-07-05 19:37:47.020 ,5,1,9.,24.0,0.,24.0,132.,24.0,0.,24.0
1979-07-05 19:38:11.020 ,1,1,7.,24.0,0.,24.0,112.,24.0,0.,24.0
1979-07-05 19:38:35.020 ,2,1,6.,24.0,0.,24.0,126.,24.0,0.,24.0
1979-07-05 19:38:59.020 ,6,1,4.,24.0,0.,24.0,124.,24.0,0.,24.0
1979-07-05 19:39:23.020 ,5,1,16.,24.0,1.,24.0,136.,24.0,0.,24.0
1979-07-05 19:39:47.020 ,1,1,7.,24.0,1.,24.0,120.,24.0,0.,24.0
1979-07-05 19:40:11.020 ,2,1,4.,24.0,1.,24.0,132.,24.0,0.,24.0
1979-07-05 19:40:35.020 ,6,1,3.,24.0,1.,24.0,136.,24.0,0.,24.0
1979-07-05 19:40:59.020 ,5,1,16.,24.0,1.,24.0,172.,24.0,0.,24.0
1979-07-05 19:41:23.020 ,1,1,6.,24.0,0.,24.0,136.,24.0,0.,24.0
1979-07-05 19:41:47.020 ,0,0,9.,24.0,0.,24.0,172.,24.0,0.,24.0
1979-07-05 19:42:11.020 ,0,0,8.,24.0,0.,24.0,144.,24.0,0.,24.0
1979-07-05 19:43:23.020 ,0,0,6.,24.0,2.,24.0,168.,24.0,0.,24.0
1979-07-05 19:43:47.020 ,0,0,4.,24.0,0.,24.0,128.,24.0,0.,24.0
1979-07-05 19:44:11.020 ,3,1,4.,24.0,0.,24.0,148.,24.0,0.,24.0
1979-07-05 19:44:35.020 ,3,0,7.,24.0,2.,24.0,140.,24.0,0.,24.0
1979-07-05 19:44:59.020 ,2,1,7.,24.0,1.,24.0,136.,24.0,0.,24.0
1979-07-05 19:45:23.020 ,2,0,7.,24.0,0.,24.0,128.,24.0,0.,24.0
1979-07-05 19:45:47.020 ,1,1,10.,24.0,1.,24.0,156.,24.0,0.,24.0
1979-07-05 19:46:11.020 ,1,0,7.,24.0,2.,24.0,148.,24.0,0.,24.0
1979-07-05 19:46:35.020 ,0,1,4.,24.0,0.,24.0,164.,24.0,0.,24.0
1979-07-05 19:46:59.020 ,0,0,1.,24.0,0.,24.0,188.,24.0,0.,24.0
1979-07-05 19:47:23.020 ,0,1,4.,24.0,0.,24.0,180.,24.0,0.,24.0
1979-07-05 19:47:47.020 ,0,0,2.,24.0,1.,24.0,196.,24.0,0.,24.0
1979-07-05 19:48:11.020 ,1,1,7.,24.0,0.,24.0,184.,24.0,0.,24.0
1979-07-05 19:48:35.020 ,1,0,11.,24.0,0.,24.0,152.,24.0,0.,24.0
1979-07-05 19:48:59.020 ,2,1,5.,24.0,0.,24.0,156.,24.0,0.,24.0
1979-07-05 19:49:23.020 ,2,0,0.,24.0,1.,24.0,148.,24.0,0.,24.0
1979-07-05 19:49:47.020 ,3,1,6.,24.0,2.,24.0,140.,24.0,0.,24.0
1979-07-05 19:50:11.020 ,3,0,2.,24.0,0.,24.0,156.,24.0,0.,24.0
1979-07-05 19:50:35.020 ,4,1,4.,24.0,1.,24.0,156.,24.0,0.,24.0
1979-07-05 19:50:59.020 ,4,0,3.,24.0,2.,24.0,176.,24.0,0.,24.0
1979-07-05 19:51:23.020 ,5,1,7.,24.0,0.,24.0,160.,24.0,0.,24.0
1979-07-05 19:51:47.020 ,5,0,11.,24.0,1.,24.0,180.,24.0,0.,24.0
1979-07-05 19:52:11.020 ,6,1,12.,24.0,2.,24.0,168.,24.0,0.,24.0
1979-07-05 19:52:35.020 ,6,0,9.,24.0,1.,24.0,180.,24.0,0.,24.0
1979-07-05 19:52:59.020 ,7,1,15.,24.0,2.,24.0,188.,24.0,0.,24.0
1979-07-05 19:53:23.020 ,7,0,36.,24.0,0.,24.0,160.,24.0,0.,24.0
1979-07-05 19:53:47.020 ,7,1,31.,24.0,0.,24.0,168.,24.0,0.,24.0
1979-07-05 19:54:11.020 ,7,0,35.,24.0,0.,24.0,168.,24.0,0.,24.0
1979-07-05 19:54:35.020 ,6,1,21.,24.0,0.,24.0,172.,24.0,0.,24.0
1979-07-05 19:54:59.020 ,6,0,6.,24.0,4.,24.0,160.,24.0,0.,24.0
1979-07-05 19:55:23.020 ,5,1,6.,24.0,3.,24.0,136.,24.0,0.,24.0
1979-07-05 19:55:47.020 ,5,0,8.,24.0,0.,24.0,144.,24.0,0.,24.0
1979-07-05 19:56:11.020 ,4,1,5.,24.0,1.,24.0,136.,24.0,0.,24.0
1979-07-05 19:56:35.020 ,4,0,4.,24.0,1.,24.0,124.,24.0,0.,24.0
1979-07-05 19:56:59.020 ,3,1,13.,24.0,0.,24.0,120.,24.0,0.,24.0
1979-07-05 19:57:23.020 ,3,0,3.,24.0,1.,24.0,86.,24.0,0.,24.0
1979-07-05 19:57:47.020 ,2,1,3.,24.0,2.,24.0,102.,24.0,0.,24.0
1979-07-05 19:58:11.020 ,2,0,2.,24.0,0.,24.0,98.,24.0,0.,24.0
1979-07-05 19:58:35.020 ,1,1,4.,24.0,1.,24.0,114.,24.0,0.,24.0
1979-07-05 19:58:59.020 ,1,0,5.,24.0,0.,24.0,118.,24.0,0.,24.0
1979-07-05 19:59:23.020 ,0,1,6.,24.0,0.,24.0,132.,24.0,0.,24.0
1979-07-05 19:59:47.020 ,0,0,2.,24.0,0.,24.0,136.,24.0,0.,24.0
1979-07-05 20:00:11.020 ,0,1,3.,24.0,0.,24.0,128.,24.0,0.,24.0
1979-07-05 20:00:35.020 ,0,0,4.,24.0,0.,24.0,156.,24.0,0.,24.0
1979-07-05 20:00:59.020 ,1,1,6.,24.0,1.,24.0,116.,24.0,0.,24.0
1979-07-05 20:01:23.020 ,1,0,0.,24.0,0.,24.0,116.,24.0,0.,24.0
1979-07-05 20:01:47.020 ,2,1,1.,24.0,0.,24.0,124.,24.0,0.,24.0
1979-07-05 20:02:11.020 ,2,0,4.,24.0,2.,24.0,92.,24.0,0.,24.0
1979-07-05 20:02:35.020 ,3,1,6.,24.0,0.,24.0,106.,24.0,0.,24.0
1979-07-05 20:02:59.020 ,3,0,6.,24.0,2.,24.0,82.,24.0,0.,24.0
1979-07-05 20:03:23.020 ,4,1,6.,24.0,2.,24.0,110.,24.0,0.,24.0
1979-07-05 20:03:47.020 ,4,0,15.,24.0,1.,24.0,136.,24.0,0.,24.0
1979-07-05 20:04:11.020 ,5,1,6.,24.0,3.,24.0,104.,24.0,0.,24.0
1979-07-05 20:04:35.020 ,5,0,11.,24.0,0.,24.0,128.,24.0,0.,24.0
1979-07-05 20:04:59.020 ,6,1,11.,24.0,1.,24.0,124.,24.0,0.,24.0
1979-07-05 20:05:23.020 ,6,0,13.,24.0,0.,24.0,128.,24.0,0.,24.0
1979-07-05 20:05:47.020 ,7,1,15.,24.0,0.,24.0,124.,24.0,0.,24.0
1979-07-05 20:06:11.020 ,7,0,22.,24.0,0.,24.0,132.,24.0,0.,24.0
1979-07-05 20:06:35.020 ,7,1,26.,24.0,0.,24.0,118.,24.0,0.,24.0
1979-07-05 20:06:59.020 ,7,0,30.,24.0,0.,24.0,132.,24.0,0.,24.0
1979-07-05 20:07:23.020 ,6,1,29.,24.0,0.,24.0,116.,24.0,0.,24.0
1979-07-05 20:07:47.020 ,6,0,9.,24.0,1.,24.0,120.,24.0,0.,24.0
1979-07-05 20:08:11.020 ,5,1,6.,24.0,2.,24.0,136.,24.0,0.,24.0
1979-07-05 20:08:35.020 ,5,0,8.,24.0,2.,24.0,106.,24.0,0.,24.0
1979-07-05 20:08:59.020 ,4,1,8.,24.0,1.,24.0,120.,24.0,0.,24.0
1979-07-05 20:09:23.020 ,4,0,7.,24.0,0.,24.0,124.,24.0,0.,24.0
1979-07-05 20:09:47.020 ,3,1,7.,24.0,0.,24.0,108.,24.0,0.,24.0
1979-07-05 20:10:11.020 ,3,0,6.,24.0,0.,24.0,100.,24.0,0.,24.0
1979-07-05 20:10:35.020 ,2,1,6.,24.0,0.,24.0,82.,24.0,0.,24.0
1979-07-05 20:10:59.020 ,2,0,2.,24.0,1.,24.0,98.,24.0,0.,24.0
1979-07-05 20:11:23.020 ,1,1,3.,24.0,0.,24.0,106.,24.0,0.,24.0
1979-07-05 20:11:47.020 ,1,0,11.,24.0,1.,24.0,110.,24.0,0.,24.0
1979-07-05 20:12:11.020 ,0,1,7.,24.0,1.,24.0,102.,24.0,0.,24.0
1979-07-05 20:12:35.020 ,0,0,4.,24.0,1.,24.0,120.,24.0,0.,24.0
1979-07-05 20:12:59.020 ,0,1,5.,24.0,2.,24.0,122.,24.0,0.,24.0
1979-07-05 20:13:23.020 ,0,0,7.,24.0,1.,24.0,136.,24.0,0.,24.0
1979-07-05 20:13:47.020 ,1,1,9.,24.0,2.,24.0,144.,24.0,0.,24.0
1979-07-05 20:14:11.020 ,1,0,7.,24.0,0.,24.0,126.,24.0,0.,24.0
1979-07-05 20:14:35.020 ,2,1,3.,24.0,0.,24.0,136.,24.0,0.,24.0
1979-07-05 20:14:59.020 ,2,0,1.,24.0,2.,24.0,94.,24.0,0.,24.0
1979-07-05 20:15:23.020 ,3,1,2.,24.0,1.,24.0,86.,24.0,0.,24.0
1979-07-05 20:15:47.020 ,3,0,8.,24.0,2.,24.0,98.,24.0,0.,24.0
1979-07-05 20:16:11.020 ,4,1,8.,24.0,0.,24.0,96.,24.0,0.,24.0
1979-07-05 20:16:35.020 ,4,0,14.,24.0,2.,24.0,118.,24.0,0.,24.0
1979-07-05 20:16:59.020 ,5,1,17.,24.0,0.,24.0,132.,24.0,0.,24.0
1979-07-05 20:17:23.020 ,5,0,12.,24.0,1.,24.0,140.,24.0,0.,24.0
1979-07-05 20:17:47.020 ,6,1,15.,24.0,3.,24.0,140.,24.0,0.,24.0
1979-07-05 20:18:11.020 ,6,0,8.,24.0,0.,24.0,140.,24.0,0.,24.0
1979-07-05 20:18:35.020 ,7,0,16.,24.0,1.,24.0,136.,24.0,0.,24.0
1979-07-05 20:18:59.020 ,7,0,36.,24.0,0.,24.0,120.,24.0,0.,24.0
1979-07-05 20:19:23.020 ,5,1,24.,24.0,0.,24.0,114.,24.0,0.,24.0
1979-07-05 20:19:47.020 ,1,1,16.,24.0,0.,24.0,106.,24.0,0.,24.0
1979-07-05 20:20:11.020 ,2,1,5.,24.0,0.,24.0,124.,24.0,0.,24.0
1979-07-05 20:20:35.020 ,6,1,11.,24.0,1.,24.0,124.,24.0,0.,24.0
1979-07-05 20:20:59.020 ,5,1,15.,24.0,0.,24.0,106.,24.0,0.,24.0
1979-07-05 20:21:23.020 ,1,1,10.,24.0,0.,24.0,92.,24.0,0.,24.0
1979-07-05 20:21:47.020 ,2,1,4.,24.0,0.,24.0,120.,24.0,0.,24.0
1979-07-05 20:22:11.020 ,6,1,8.,24.0,1.,24.0,118.,24.0,0.,24.0
1979-07-05 20:22:35.020 ,5,1,27.,24.0,0.,24.0,114.,24.0,0.,24.0
1979-07-05 20:22:59.020 ,1,1,3.,24.0,1.,24.0,110.,24.0,0.,24.0
1979-07-05 20:23:23.020 ,2,1,9.,24.0,1.,24.0,104.,24.0,0.,24.0
1979-07-05 20:23:47.020 ,6,1,11.,24.0,1.,24.0,120.,24.0,0.,24.0
1979-07-05 20:24:11.020 ,5,1,21.,24.0,0.,24.0,136.,24.0,0.,24.0
1979-07-05 20:24:35.020 ,1,1,12.,24.0,0.,24.0,88.,24.0,0.,24.0
1979-07-05 20:24:59.020 ,2,1,6.,24.0,0.,24.0,110.,24.0,0.,24.0
1979-07-05 20:25:23.020 ,6,1,9.,24.0,0.,24.0,136.,24.0,0.,24.0
1979-07-05 20:25:47.020 ,5,1,29.,24.0,1.,24.0,140.,24.0,0.,24.0
1979-07-05 20:26:11.020 ,1,1,5.,24.0,0.,24.0,116.,24.0,0.,24.0
1979-07-05 20:26:35.020 ,2,1,3.,24.0,0.,24.0,114.,24.0,0.,24.0
1979-07-05 20:26:59.020 ,6,1,13.,24.0,0.,24.0,120.,24.0,0.,24.0
1979-07-05 20:27:23.020 ,5,1,21.,24.0,0.,24.0,106.,24.0,0.,24.0
1979-07-05 20:27:47.020 ,1,1,2.,24.0,1.,24.0,104.,24.0,0.,24.0
1979-07-05 20:28:11.020 ,2,1,5.,24.0,1.,24.0,106.,24.0,0.,24.0
1979-07-05 20:28:35.020 ,6,1,7.,24.0,0.,24.0,136.,24.0,0.,24.0
1979-07-05 20:28:59.020 ,5,1,18.,24.0,0.,24.0,128.,24.0,0.,24.0
1979-07-05 20:29:23.020 ,1,1,5.,24.0,0.,24.0,114.,24.0,0.,24.0
1979-07-05 20:29:47.020 ,0,0,1.,24.0,0.,24.0,112.,24.0,0.,24.0
1979-07-05 20:30:11.020 ,0,0,9.,24.0,2.,24.0,122.,24.0,0.,24.0
1979-07-05 20:30:35.020 ,5,1,15.,24.0,1.,24.0,106.,24.0,0.,24.0
1979-07-05 20:30:59.020 ,5,0,13.,24.0,0.,24.0,128.,24.0,0.,24.0
1979-07-05 20:31:23.020 ,4,1,14.,24.0,1.,24.0,106.,24.0,0.,24.0
1979-07-05 20:31:47.020 ,4,0,6.,24.0,1.,24.0,114.,24.0,0.,24.0
1979-07-05 20:32:11.020 ,3,1,14.,24.0,1.,24.0,90.,24.0,0.,24.0
1979-07-05 20:32:35.020 ,3,0,3.,24.0,1.,24.0,84.,24.0,0.,24.0
1979-07-05 20:32:59.020 ,2,1,5.,24.0,1.,24.0,82.,24.0,0.,24.0